Probability
0 0 0 0 0 0 0 0 0 0 0 0 0 0 0 0 0 0 0 0 0 0 0 0 0 0 0 0 0 0 0 0 0 0 0 1 1 1 2 4 5 6 6 3 1 0 0 0 0
0 0 0 0 0 0 0 0 0 0 0 0 0 0 0 0 0 0 0 0 0 0 0 0 0 0 0 0 0 0 0 0 0 0 0 0 0 1 2 4 4 5 4 2 1 0 0 0 0
0 0 0 0 0 0 0 0 0 0 0 0 0 0 0 0 0 0 0 0 0 0 0 0 0 0 0 0 0 0 0 0 0 0 1 0 0 1 2 3 3 3 2 1 0 0 0 0 0
0 0 0 0 0 0 0 0 0 0 0 0 0 0 0 0 0 0 0 0 0 0 0 0 0 0 0 0 0 0 0 0 0 0 0 0 0 0 1 2 2 2 1 0 0 0 0 0 0
0 0 0 0 0 0 0 0 0 0 0 0 0 0 0 0 0 0 0 0 0 0 0 1 1 1 1 0 0 0 0 0 0 0 0 0 0 0 0 0 1 2 1 0 0 0 0 0 0
0 0 0 0 0 0 0 0 0 0 1 0 0 0 0 0 0 0 0 0 0 0 1 1 2 2 2 1 1 0 0 0 0 0 0 0 0 0 0 0 0 1 1 0 0 0 0 0 0
0 0 0 0 0 0 0 0 0 0 0 0 0 0 0 0 0 0 0 0 0 1 2 3 3 2 2 2 1 0 0 0 0 0 0 0 0 0 0 0 0 0 0 0 0 0 0 0 0
0 0 0 0 0 0 0 0 0 0 0 0 0 0 0 1 1 1 0 0 1 2 3 3 3 3 2 1 1 0 0 0 0 0 0 0 0 0 0 0 0 0 0 0 0 0 0 0 0
0 0 0 0 0 0 0 0 0 0 0 0 0 0 1 2 3 2 1 0 1 2 3 3 3 3 3 1 1 0 0 0 0 0 0 0 0 0 0 0 0 0 0 1 1 1 0 0 0
0 0 0 0 0 0 0 0 0 0 1 0 0 0 2 3 4 3 2 1 0 1 3 3 3 3 3 3 2 1 0 0 0 0 0 0 0 0 0 0 0 0 0 1 1 1 0 0 0
0 0 0 0 0 0 0 0 0 0 0 0 0 0 2 3 3 3 2 1 0 1 2 3 3 3 3 3 3 2 1 0 0 0 0 0 0 0 0 0 0 0 0 0 0 0 0 0 0
0 0 0 0 0 0 0 0 0 0 0 0 0 0 1 1 2 3 3 1 0 0 1 3 3 3 3 3 3 2 1 0 0 0 0 0 0 0 0 0 0 0 0 0 0 0 0 0 0
0 0 0 0 0 0 0 0 0 0 0 0 0 0 0 0 1 3 3 2 1 0 1 2 3 3 3 3 3 2 1 0 0 0 0 0 0 0 0 0 0 0 0 0 0 0 0 0 0
0 0 0 0 0 0 0 0 0 0 0 0 0 0 0 0 1 2 3 2 1 1 1 2 3 3 3 3 3 2 1 0 0 0 0 0 0 0 0 0 0 0 0 0 0 0 0 0 0
0 0 0 0 0 0 0 0 0 0 0 0 0 0 0 0 0 1 1 2 3 2 1 1 2 3 3 3 3 1 0 0 0 0 0 0 0 0 0 0 0 0 0 0 0 0 0 0 0
0 0 0 0 0 0 0 0 0 0 0 0 0 0 0 0 0 0 1 2 3 3 2 1 2 2 3 3 2 1 0 0 0 0 0 1 0 0 0 0 0 0 0 0 0 0 0 0 0
0 0 0 0 0 0 0 0 0 0 0 0 0 0 0 0 0 0 1 3 3 3 3 3 2 2 2 3 2 1 0 0 0 0 0 0 0 0 0 0 0 0 0 0 0 0 0 0 0
0 0 0 0 0 0 0 0 0 0 0 0 0 0 0 0 0 1 2 3 3 3 3 3 3 2 2 2 1 0 0 0 0 0 0 0 0 0 0 0 0 0 0 0 0 0 0 0 0
0 0 0 0 0 0 0 0 0 0 0 0 0 0 0 0 0 1 2 3 3 3 3 3 3 3 3 2 1 0 0 0 0 0 0 0 0 0 0 0 0 0 0 0 0 0 0 0 0
0 0 0 0 0 0 0 0 0 0 0 0 0 0 0 0 0 1 2 3 3 3 3 3 3 3 3 2 2 1 1 0 0 0 0 0 0 0 0 0 0 0 0 0 0 0 0 0 0
0 0 0 0 0 0 0 0 0 0 0 0 0 0 0 0 0 0 2 3 4 3 3 3 3 3 3 2 2 2 1 0 0 0 0 0 0 0 0 0 0 0 0 0 0 0 0 0 0
0 0 0 0 0 0 0 0 0 0 0 0 0 0 0 0 0 1 3 4 5 4 4 4 3 3 3 3 3 3 1 0 0 0 0 0 0 0 0 0 0 0 0 0 0 0 0 0 0
0 0 0 0 0 0 0 0 0 0 0 0 0 0 0 0 0 1 4 6 7 6 5 5 4 3 2 3 4 2 1 0 0 0 0 0 0 0 0 0 0 0 0 0 0 0 0 0 0
0 0 0 0 0 0 0 0 0 0 0 0 0 0 0 0 0 1 3 4 6 6 5 5 5 3 2 3 3 2 0 0 0 0 0 0 0 0 0 0 0 0 0 0 0 0 0 0 0
0 0 0 0 0 0 0 0 0 0 0 0 0 0 0 0 0 0 1 3 4 5 5 4 4 3 3 3 3 2 1 1 0 0 0 0 0 0 0 0 0 0 0 0 0 0 0 0 0
0 0 0 0 0 0 0 0 0 0 0 0 0 0 0 0 0 0 1 2 4 4 4 3 3 3 3 3 3 3 3 2 1 0 0 0 0 0 0 0 0 0 0 0 0 0 0 0 0
0 0 0 0 0 0 0 0 0 0 0 0 0 0 0 0 0 0 0 1 2 3 3 3 3 3 3 3 3 3 3 3 1 0 0 0 0 0 0 0 0 0 0 0 0 0 0 0 0
0 0 0 0 0 0 0 0 0 0 0 0 0 0 0 0 0 0 0 0 1 3 3 3 3 3 3 3 3 3 3 3 2 0 0 0 0 0 0 0 0 0 0 0 0 0 0 0 0
0 0 0 0 0 0 0 0 0 0 0 0 0 0 0 0 0 0 0 0 1 2 3 3 3 3 3 3 3 3 3 3 1 0 0 0 0 0 0 0 0 0 0 0 0 0 0 0 0
0 0 0 0 0 0 0 0 0 0 0 0 0 0 0 0 0 0 0 0 1 2 3 3 3 3 3 3 3 3 3 2 1 0 0 0 0 0 0 0 0 0 0 0 0 0 0 0 0
Wind_Speed
4 3 3 5 7 7 4 2 1 2 3 2 4 6 6 4 3 3 1 1 1 1 1 2 4 6 7 8 9 9 9 9 9 9 9 9 10 10 10 11 11 11 11 11 11 10 10 9 9
2 2 5 6 7 4 2 2 2 1 3 3 4 4 5 4 2 3 0 1 2 2 2 2 4 6 7 8 9 9 9 9 9 10 10 10 11 10 11 11 11 11 11 11 11 10 10 9 9
2 4 5 6 5 4 2 0 2 3 3 2 3 4 4 2 2 2 1 3 3 2 2 2 5 6 6 7 8 8 9 9 9 10 11 11 11 11 11 10 11 11 11 10 10 10 10 9 9
4 6 6 7 5 1 2 2 2 4 4 4 3 4 3 2 2 2 3 4 4 3 2 2 4 6 6 6 7 8 8 9 9 10 10 10 10 10 10 10 10 10 10 10 10 9 9 9 9
5 6 7 5 3 2 1 1 2 4 3 3 4 4 3 4 3 5 5 4 3 2 2 2 4 5 5 6 6 7 7 9 9 10 9 9 9 9 9 9 9 10 10 10 10 10 10 10 11
6 6 6 3 2 2 2 1 4 5 4 3 4 4 2 1 3 4 4 3 3 3 3 3 4 5 5 5 6 7 7 8 9 9 9 9 9 8 9 9 9 9 10 10 10 10 11 11 11
6 5 4 4 2 2 1 2 3 4 4 2 3 4 1 1 1 4 4 4 3 3 3 3 4 4 5 6 6 6 7 7 8 8 8 8 9 9 9 9 9 9 10 10 10 11 11 12 11
5 6 4 2 3 1 1 2 3 4 3 2 3 5 2 2 3 5 5 4 4 4 3 3 4 4 4 4 5 6 6 7 7 7 7 8 8 8 8 8 8 9 10 10 11 11 11 12 12
4 6 3 3 4 2 2 3 3 3 5 3 3 2 2 6 7 6 5 4 3 3 2 3 3 4 3 3 4 5 6 6 6 6 7 7 4 4 5 7 8 9 10 10 11 11 11 11 11
5 4 2 2 4 4 3 3 2 4 5 4 5 5 6 8 7 6 4 2 2 2 2 2 2 3 3 3 3 3 3 3 4 4 4 3 3 3 5 7 9 9 9 9 10 11 10 8 5
4 4 2 2 3 5 4 4 3 6 2 1 3 3 6 7 5 4 3 2 1 0 1 2 1 2 2 2 2 2 2 2 3 4 4 3 3 3 3 3 4 5 6 5 6 6 4 4 4
4 3 3 3 3 4 4 4 4 3 2 2 4 5 6 6 5 4 3 1 1 2 1 1 1 1 2 2 2 2 2 2 2 2 3 2 2 2 2 2 3 3 2 3 3 3 4 4 4
4 3 4 4 5 5 6 4 3 2 2 5 6 6 5 5 3 2 2 2 2 1 1 1 1 1 1 2 2 2 2 2 2 2 2 2 2 2 2 2 2 2 2 2 3 3 3 4 4
3 4 4 3 4 3 6 3 3 1 3 6 6 5 4 4 3 2 2 2 1 1 0 1 2 2 2 2 1 1 1 1 2 2 2 2 2 2 2 2 2 2 2 2 2 3 3 3 3
4 5 5 4 2 1 4 3 1 1 4 5 4 3 3 2 2 2 2 2 2 1 1 1 2 2 2 2 2 2 1 1 1 1 2 2 2 2 2 2 2 2 2 2 3 3 3 3 3
4 4 2 3 2 1 5 1 3 1 4 3 2 2 2 1 1 2 1 1 1 1 1 1 1 2 2 2 1 1 1 2 1 1 1 2 1 2 2 2 2 1 2 2 2 2 3 3 3
4 2 0 2 2 2 3 2 2 2 4 3 2 2 2 1 1 1 1 2 2 2 2 2 1 2 2 1 2 2 2 2 1 1 1 1 1 1 2 2 1 2 2 2 2 2 2 2 2
2 1 1 1 1 2 1 2 2 1 3 3 2 2 2 2 3 2 1 1 2 2 2 2 2 1 2 2 2 2 2 2 2 1 1 1 1 1 1 2 2 2 2 2 2 2 2 2 1
3 3 2 3 1 2 2 3 3 1 2 2 3 3 3 3 3 1 1 1 1 2 2 1 2 1 2 1 1 1 1 1 1 1 2 2 1 1 2 2 2 2 2 2 2 2 2 2 1
3 2 1 2 1 1 2 4 3 1 4 4 5 5 4 3 1 0 0 1 1 2 1 1 1 1 1 1 1 1 0 0 0 1 2 2 1 1 1 2 1 1 2 2 2 2 1 1 1
1 3 3 2 2 2 1 4 3 2 1 1 2 2 3 4 4 3 2 1 1 1 2 2 1 1 1 2 2 2 2 2 2 2 2 2 2 1 1 1 1 1 2 1 1 2 2 1 1
2 3 3 2 1 2 0 3 5 2 2 1 2 2 3 3 2 2 2 2 2 3 2 1 1 1 1 2 2 2 1 1 1 1 1 2 2 1 1 1 1 1 1 1 1 2 1 2 1
3 1 2 1 1 1 1 2 6 2 3 3 3 3 3 3 3 3 3 4 3 2 1 1 1 1 1 2 2 2 1 1 1 1 1 2 2 2 1 1 1 1 1 1 1 1 1 1 2
2 4 4 4 4 1 3 3 6 3 4 3 3 3 3 2 2 2 2 1 1 1 1 1 2 1 1 2 2 2 1 1 0 1 1 1 1 1 2 1 1 1 1 1 1 2 2 1 2
4 5 3 4 2 4 2 2 6 4 3 3 3 3 2 1 1 1 1 1 1 1 1 2 2 1 1 1 1 1 1 1 1 1 1 1 1 1 1 1 0 0 0 1 1 2 2 1 2
1 6 5 3 3 4 2 4 5 3 2 1 1 1 0 0 1 1 2 2 1 1 2 2 2 1 1 1 0 0 0 1 1 1 1 1 1 1 1 0 0 0 1 1 1 1 1 1 1
3 2 4 4 1 2 4 4 5 2 4 3 3 2 1 0 0 1 1 1 1 1 2 2 2 2 1 1 0 0 0 0 1 0 0 1 1 1 0 0 0 0 1 1 1 1 1 1 1
3 6 4 3 2 3 4 4 3 3 3 2 2 1 1 1 1 1 1 1 0 0 1 2 2 2 1 1 1 0 0 0 0 0 0 1 1 1 1 1 1 1 0 1 1 1 1 1 0
2 2 3 3 3 4 3 6 3 3 2 2 2 2 1 0 0 0 0 1 1 1 1 1 1 1 1 1 0 0 0 0 0 0 0 0 0 1 1 1 1 1 1 1 1 1 1 1 1
2 4 5 4 3 3 3 7 2 1 1 1 2 2 1 1 1 1 1 1 1 1 1 1 0 0 1 1 1 1 1 1 1 0 0 0 0 0 1 1 1 1 1 1 1 1 1 1 1
Wind_Direction
356 42 71 57 55 55 55 1 25 50 52 36 59 77 90 81 84 120 260 152 136 104 22 44 82 84 81 77 74 72 71 71 73 73 74 81 83 80 79 77 73 71 74 82 83 80 78 79 81
13 52 54 57 76 74 25 342 71 85 141 135 68 70 73 67 70 110 134 154 114 100 57 58 85 85 83 80 77 74 72 72 74 73 75 81 82 82 81 77 74 73 73 78 80 79 76 77 79
48 52 72 66 81 123 142 188 111 83 88 88 69 57 73 84 111 153 185 136 100 77 52 55 90 88 85 83 82 78 74 74 77 77 76 79 80 81 79 76 74 73 74 77 80 80 77 76 77
66 45 55 68 75 116 158 168 138 103 60 48 84 65 52 33 149 154 129 117 101 71 45 52 91 91 86 83 85 82 79 79 80 80 80 79 78 79 78 74 73 71 72 74 77 79 77 76 76
59 68 63 60 47 14 52 135 119 89 73 50 81 88 41 352 85 112 118 112 106 73 37 36 79 86 85 83 81 79 79 78 79 80 80 79 77 75 74 73 75 73 72 71 72 73 74 75 74
56 64 79 81 51 20 38 83 98 85 89 83 86 93 51 11 93 113 105 96 91 77 48 35 57 71 78 80 79 78 78 78 77 78 78 75 74 73 73 74 75 75 73 71 70 71 74 76 74
91 85 99 112 89 47 63 61 89 97 87 93 115 96 69 40 108 106 90 80 67 59 52 33 27 39 55 70 74 73 74 77 76 75 75 72 71 69 69 69 72 73 72 72 73 76 76 76 75
109 96 83 91 109 83 58 74 81 92 97 83 91 118 166 201 121 92 77 66 63 54 45 33 25 30 36 41 59 66 66 68 67 65 66 65 62 59 60 63 70 72 72 72 74 75 76 74 72
79 79 109 162 147 137 79 81 57 62 87 64 56 109 142 116 101 86 68 47 47 51 34 33 29 26 29 36 52 53 59 57 55 51 55 55 44 41 46 55 68 70 71 71 72 74 75 72 67
76 103 165 180 155 131 92 87 98 75 60 45 43 44 80 99 105 104 99 85 50 20 4 27 38 37 33 41 46 36 46 46 47 46 43 43 41 38 47 49 61 62 64 65 68 69 68 62 50
83 124 118 81 118 115 100 70 63 107 77 153 134 113 107 107 111 118 120 116 132 25 20 31 36 45 48 44 48 40 38 40 41 44 48 48 43 37 38 38 40 43 50 49 55 56 52 53 51
84 70 103 98 99 102 111 103 75 88 170 156 130 127 124 126 135 142 140 124 81 67 24 24 43 50 45 57 55 53 49 44 39 37 51 60 54 43 39 42 35 39 42 53 56 62 58 58 54
78 77 78 86 84 96 93 94 108 38 57 98 107 111 126 136 141 134 128 113 86 78 31 35 59 58 52 62 53 60 54 56 47 41 44 64 70 56 49 49 46 44 47 56 62 66 65 60 54
110 92 71 64 79 82 96 71 83 319 90 99 112 129 143 147 148 118 105 117 118 128 115 78 78 62 59 66 69 65 51 58 57 45 40 60 75 74 64 51 43 39 44 57 74 75 73 65 64
91 73 36 18 56 101 96 35 293 223 113 114 129 145 145 158 148 163 179 165 170 187 174 133 116 80 71 60 64 73 54 55 57 47 39 46 61 73 77 69 50 33 44 64 73 69 67 69 65
55 58 40 336 28 84 112 229 275 159 134 144 158 162 167 204 190 202 173 143 145 153 148 143 125 96 81 66 56 63 63 66 50 41 40 44 50 73 82 74 50 39 59 66 76 71 69 63 61
35 74 214 319 3 95 127 217 266 153 152 167 184 188 190 227 285 253 186 163 155 161 153 132 106 110 108 87 63 65 62 62 50 43 39 31 31 66 98 87 62 65 73 69 80 67 80 79 61
200 170 201 261 327 85 114 258 291 178 167 182 191 199 200 216 242 239 206 174 151 133 123 120 103 100 105 84 58 49 47 33 36 34 25 37 42 61 86 83 66 74 80 63 73 81 66 79 75
166 162 204 255 244 140 209 260 278 226 193 200 204 206 210 229 251 242 182 150 116 91 98 116 109 106 103 84 85 71 22 355 6 360 3 26 38 73 94 84 78 81 95 96 99 95 77 53 50
137 139 276 309 360 163 220 271 277 231 217 213 206 210 211 229 278 311 40 105 151 155 146 130 134 140 139 147 159 152 141 319 332 353 358 5 12 44 100 105 108 103 98 89 91 97 96 57 47
163 178 198 231 356 33 19 313 301 302 272 237 224 217 214 207 209 206 202 195 174 184 190 181 175 153 148 120 87 61 49 28 16 0 346 338 344 358 82 112 116 112 118 123 116 110 114 120 43
242 222 184 176 101 291 307 277 286 286 319 289 250 232 228 232 216 203 190 193 203 217 208 177 150 119 121 120 113 113 124 189 249 262 287 327 357 360 59 108 114 113 105 114 141 124 129 129 122
211 107 110 120 137 349 330 239 285 325 292 284 260 245 239 224 209 203 199 201 203 198 172 143 104 90 93 118 136 132 153 238 278 320 352 356 360 8 28 73 99 115 114 123 117 101 107 116 136
132 69 57 52 70 289 247 201 282 265 250 268 263 257 252 229 201 208 204 182 182 135 117 102 101 85 86 111 124 139 176 257 4 349 344 339 345 350 7 36 56 81 107 126 131 122 117 119 118
77 84 32 3 6 256 254 202 253 263 254 233 241 256 257 220 175 182 162 161 156 140 138 128 126 109 99 114 126 167 187 185 204 236 257 319 330 322 310 7 53 84 141 140 124 127 127 123 123
154 135 156 204 233 280 295 234 253 276 293 286 238 220 133 95 162 192 188 176 154 149 150 138 140 129 114 124 176 240 178 172 214 220 217 232 259 276 275 221 154 144 124 123 119 124 140 126 131
128 157 167 142 194 272 277 286 303 352 12 17 28 48 60 245 213 183 145 133 137 157 163 163 159 147 165 179 171 65 332 253 255 274 246 250 273 299 1 352 105 76 86 115 127 120 130 129 146
137 142 102 121 161 262 288 274 266 297 304 328 342 340 310 12 31 49 60 71 64 142 163 141 147 167 171 149 159 111 255 254 264 98 26 338 342 5 98 55 75 83 86 115 125 130 121 111 145
99 105 116 125 160 170 263 272 233 231 250 256 273 298 303 33 108 77 36 23 51 39 56 107 127 111 102 136 148 108 329 33 73 100 203 334 22 45 79 86 89 85 79 76 103 93 115 124 92
166 167 146 155 222 182 204 267 303 260 241 243 291 315 340 8 27 42 44 49 54 49 45 55 78 222 218 171 127 89 16 40 83 59 323 62 101 99 91 93 96 89 75 85 117 120 98 135 137